{"data":{"norad_id":87737,"epoch":"2026-09-17T20:34:53.653152Z","epoch_age_seconds":246466,"freshness":"STALE","line1":"1 87737U          26260.85756543  .00000000  00000+0  44310-4 0  9996","line2":"2 87737  99.3333 131.0355 0132971 181.2017 178.8830 13.72381541642142","mean_motion":13.72381541,"eccentricity":0.0132971,"inclination_deg":99.3333,"raan_deg":131.0355,"arg_perigee_deg":181.2017,"mean_anomaly_deg":178.883,"bstar":4.431e-5,"rev_number":64214,"period_min":104.92708893117,"perigee_km":893.0447539166,"apogee_km":1089.021944011,"semimajor_km":7369.1703489638,"source":"CELESTRAK","updated_at":"2026-09-20T09:00:32.479197Z"}}